FENGYUN 1C DEB

Satellite information

Favourite Embed

Satellite Type and Status

DEBRISIN ORBIT

Key statistics

Satellite FENGYUN 1C DEB at a glance.

Uptime

9715

Days in orbit

Revolutions

≈ 14.1

Per day

Orbit

SSO

Sun Synchronous Orbit

Inclination

99.1

Latest

Satellite identification and parameters

Extended collection of information and parameters for FENGYUN 1C DEB.

Object identification

Identified? True

Debris? True

Object name: FENGYUN 1C DEB

International designator: 1999-025ZL

Object number (NORAD): 30299

Object ID (CCSDS): 30299

Country: PEOPLES REPUBLIC OF CHINA (PRC)

Current information (Y/N): Y

RCS size: SMALL

Orbital parameters

Period: 102.291 minutes

Inclination: 99.0925 deg

SMA: 7245.237 km

Apoapsis: 941.896 km

Periapsis: 792.309 km

RAAN: 58.4032 deg

Eccentricy: 0.01032315

Argument of periapsis: 9.5341 deg

Mean anomaly: 51.8648 deg

Mean motion: 14.0774449 rev/day

Mean motion (dot): 0.00003534 rev/day2

B* drag term: 0.0020135789 1/REarth

Two-line elements (TLE)

Creation date: Dec. 12, 2025, 10:14 a.m.

Reference frame: TEME

Reference center: EARTH

Epoch: Dec. 12, 2025, 4:17 a.m. UTC

TLE line 0: 0 FENGYUN 1C DEB

TLE line 1: 1 30299U 99025ZL 25346.17859723 .00003534 00000-0 20136-2 0 9999

TLE line 2: 2 30299 99.0925 58.4032 0103232 9.5341 51.8648 14.07744490962823

Live tracking on map

Real-time ground track for satellite FENGYUN 1C DEB.

In-orbit conjunctions

A list of the most updated potential collisions computed for object FENGYUN 1C DEB.

Target Orbit TCA Probability of collision Miss distance Type
FENGYUN 1C DEB SSO 2025-06-26 06:22:54 0.0001384447 164.0 (m) DEBRIS
THORAD AGENA D DEB SSO 2024-08-15 13:53:37 0.0001119415 324.0 (m) DEBRIS
QUAKESAT SSO 2024-08-03 01:06:28 0.0001123935 689.0 (m) PAYLOAD

Associated space launch

Chinese polar orbiting meteorological satellite

FENGYUN 1C DEB was lifted into orbit during the mission ‘Long March 4B | Feng Yun 1C’, on board a Long March 4B space rocket.

The launch took place on May 10, 1999, 1:33 a.m. from Launch Complex 7.

For more information about the launch, click the button.

Launch to space Long March 4B | Feng Yun 1C
Long March 4B | Feng Yun 1C

Agency: N/A

Status: Launch Successful

Launch date: May 10, 1999, 1:33 a.m. UTC

Rocket: Long March 4B

Launch pad: Launch Complex 7

Location: Taiyuan Satellite Launch Center, People's Republic of China

...

Latest news about this satellite

There are no fresh news available about this satellite. Check back as we update our databases every day.


Newsletter sign-up

Weekly statistics, charts and insights to help you stay on top of the space industry.